Location: Poprad
(49.0500°N, 20.3000°E)
Time: 18:05:12
(UTC+02:00)

RS-44 - Pass Details

Date: 19 April 2024
Orbit: 1174 x 1511 km, 82.5° (Epoch: 20 May)

Event Time Altitude Azimuth Distance (km) Brightness Sun altitude
Rises 22:56:40 0° 243° (WSW) 4,632 ? -25.4°
Reaches altitude 10° 23:00:39 10° 259° (W) 3,629 ? -25.7°
Maximum altitude 23:06:48 21° 305° (NW) 2,827 ? -26.1°
Drops below altitude 10° 23:12:47 10° 351° (N) 3,497 ? -26.5°
Sets 23:16:35 0° 7° (N) 4,416 ? -26.8°
